| time (UTC) | temp C | wind direction | speed KPH | gust KPH | rain 1hr cm | rain 24hr cm | rain mn cm | humidity % | barometer mb |
| 20260504175959 | 27 | 359 | 4.8 | 9.7 | 0.00 | 0.00 | 0.00 | 45 | 1027.8 |
| 20260504175455 | 27 | 338 | 3.2 | 4.8 | 0.00 | 0.00 | 0.00 | 44 | 1027.7 |
| 20260504174953 | 27 | 267 | 4.8 | 4.8 | 0.00 | 0.00 | 0.00 | 45 | 1027.9 |
| 20260504174450 | 27 | 20 | 4.8 | 4.8 | 0.00 | 0.00 | 0.00 | 43 | 1027.9 |
| 20260504173947 | 27 | 357 | 4.8 | 8.0 | 0.00 | 0.00 | 0.00 | 44 | 1027.8 |
| 20260504173438 | 27 | 169 | 3.2 | 4.8 | 0.00 | 0.00 | 0.00 | 45 | 1027.8 |
| 20260504172936 | 27 | 273 | 3.2 | 3.2 | 0.00 | 0.00 | 0.00 | 45 | 1028.1 |
| 20260504172432 | 27 | 313 | 8.0 | 14.5 | 0.00 | 0.00 | 0.00 | 43 | 1028.1 |
| 20260504171929 | 27 | 309 | 1.6 | 3.2 | 0.00 | 0.00 | 0.00 | 46 | 1028.0 |
| 20260504171426 | 27 | 277 | 1.6 | 1.6 | 0.00 | 0.00 | 0.00 | 46 | 1028.0 |
| 20260504170923 | 26 | 278 | 4.8 | 8.0 | 0.00 | 0.00 | 0.00 | 47 | 1028.2 |
| 20260504170419 | 27 | 315 | 3.2 | 4.8 | 0.00 | 0.00 | 0.00 | 45 | 1028.3 |
| 20260504160442 | 26 | 328 | 8.0 | 12.9 | 0.00 | 0.00 | 0.00 | 48 | 1029.0 |
| 20260504150906 | 25 | 287 | 3.2 | 3.2 | 0.00 | 0.00 | 0.00 | 55 | 1029.5 |
| 20260504150402 | 24 | 303 | 1.6 | 1.6 | 0.00 | 0.00 | 0.00 | 56 | 1029.6 |
| 20260504141332 | 22 | 213 | 3.2 | 3.2 | 0.00 | 0.00 | 0.00 | 64 | 1029.6 |
| 20260504140829 | 21 | 350 | 0.0 | 1.6 | 0.00 | 0.00 | 0.00 | 67 | 1029.7 |
| 20260504140325 | 21 | 321 | 3.2 | 3.2 | 0.00 | 0.00 | 0.00 | 67 | 1029.6 |
| 20260504130754 | 17 | 0 | 0.0 | 0.0 | 0.00 | 0.00 | 0.00 | 76 | 1029.6 |
| 20260504130249 | 17 | 307 | 0.0 | 1.6 | 0.00 | 0.00 | 0.00 | 78 | 1029.8 |
| 20260504120213 | 13 | 346 | 0.0 | 0.0 | 0.00 | 0.00 | 0.00 | 87 | 1029.6 |
| 20260504100413 | 13 | 5 | 0.0 | 0.0 | 0.00 | 0.00 | 0.00 | 80 | 1029.0 |
| 20260504081610 | 13 | 9 | 1.6 | 1.6 | 0.00 | 0.00 | 0.00 | 76 | 1029.3 |
| 20260504081106 | 13 | 1 | 0.0 | 0.0 | 0.00 | 0.00 | 0.00 | 75 | 1029.3 |
| 20260504080603 | 13 | 0 | 1.6 | 1.6 | 0.00 | 0.00 | 0.00 | 75 | 1029.5 |
| 20260504050415 | 14 | 304 | 0.0 | 0.0 | 0.00 | 0.00 | 0.00 | 67 | 1030.7 |
| 20260504045912 | 15 | 335 | 0.0 | 0.0 | 0.00 | 0.00 | 0.00 | 66 | 1030.7 |
| 20260504045408 | 15 | 278 | 1.6 | 1.6 | 0.00 | 0.00 | 0.00 | 65 | 1030.8 |
| 20260504044904 | 14 | 293 | 1.6 | 1.6 | 0.00 | 0.00 | 0.00 | 66 | 1031.2 |
| 20260504044402 | 13 | 228 | 1.6 | 1.6 | 0.00 | 0.00 | 0.00 | 67 | 1031.1 |
| 20260504043859 | 13 | 300 | 3.2 | 3.2 | 0.00 | 0.00 | 0.00 | 70 | 1031.0 |
| 20260504043356 | 13 | 305 | 0.0 | 0.0 | 0.00 | 0.00 | 0.00 | 69 | 1031.0 |
| 20260504042854 | 13 | 329 | 0.0 | 0.0 | 0.00 | 0.00 | 0.00 | 69 | 1031.0 |
| 20260504042349 | 13 | 258 | 0.0 | 0.0 | 0.00 | 0.00 | 0.00 | 70 | 1031.1 |
| 20260504041846 | 13 | 326 | 0.0 | 0.0 | 0.00 | 0.00 | 0.00 | 69 | 1031.2 |
| 20260504041342 | 13 | 347 | 0.0 | 0.0 | 0.00 | 0.00 | 0.00 | 68 | 1031.1 |
| 20260504040838 | 13 | 297 | 0.0 | 0.0 | 0.00 | 0.00 | 0.00 | 68 | 1031.1 |
| 20260504040336 | 14 | 309 | 0.0 | 1.6 | 0.00 | 0.00 | 0.00 | 68 | 1031.3 |
| 20260504035832 | 14 | 342 | 0.0 | 0.0 | 0.00 | 0.00 | 0.00 | 68 | 1031.3 |
| 20260504035330 | 14 | 346 | 0.0 | 0.0 | 0.00 | 0.00 | 0.00 | 68 | 1031.3 |
| 20260504034827 | 15 | 56 | 0.0 | 0.0 | 0.00 | 0.00 | 0.00 | 67 | 1031.3 |
| 20260504034324 | 15 | 3 | 0.0 | 1.6 | 0.00 | 0.00 | 0.00 | 63 | 1031.5 |
| 20260504033821 | 15 | 307 | 0.0 | 1.6 | 0.00 | 0.00 | 0.00 | 64 | 1031.2 |
| 20260504033319 | 15 | 309 | 0.0 | 0.0 | 0.00 | 0.00 | 0.00 | 64 | 1031.2 |
| 20260504032815 | 15 | 351 | 0.0 | 0.0 | 0.00 | 0.00 | 0.00 | 64 | 1031.1 |
| 20260504032313 | 15 | 327 | 0.0 | 0.0 | 0.00 | 0.00 | 0.00 | 64 | 1031.3 |
| 20260504031809 | 15 | 357 | 0.0 | 0.0 | 0.00 | 0.00 | 0.00 | 65 | 1031.3 |
| 20260504031307 | 15 | 343 | 0.0 | 0.0 | 0.00 | 0.00 | 0.00 | 66 | 1031.5 |
| 20260504030803 | 15 | 319 | 0.0 | 0.0 | 0.00 | 0.00 | 0.00 | 64 | 1031.4 |
| 20260504030300 | 15 | 336 | 0.0 | 0.0 | 0.00 | 0.00 | 0.00 | 63 | 1031.4 |
| 20260504025756 | 15 | 334 | 0.0 | 0.0 | 0.00 | 0.00 | 0.00 | 64 | 1031.6 |
| 20260504025253 | 15 | 327 | 0.0 | 0.0 | 0.00 | 0.00 | 0.00 | 63 | 1031.6 |
| 20260504024750 | 15 | 328 | 0.0 | 0.0 | 0.00 | 0.00 | 0.00 | 64 | 1031.2 |
| 20260504024246 | 15 | 345 | 0.0 | 0.0 | 0.00 | 0.00 | 0.00 | 65 | 1031.3 |
| 20260504023744 | 15 | 339 | 0.0 | 0.0 | 0.00 | 0.00 | 0.00 | 64 | 1031.4 |
| 20260504023240 | 15 | 345 | 0.0 | 0.0 | 0.00 | 0.00 | 0.00 | 63 | 1031.4 |
| 20260504022736 | 15 | 352 | 0.0 | 0.0 | 0.00 | 0.00 | 0.00 | 64 | 1031.6 |
| 20260504022232 | 15 | 347 | 0.0 | 0.0 | 0.00 | 0.00 | 0.00 | 64 | 1031.2 |
| 20260504021729 | 15 | 346 | 0.0 | 0.0 | 0.00 | 0.00 | 0.00 | 62 | 1031.2 |
| 20260504021226 | 16 | 348 | 0.0 | 0.0 | 0.00 | 0.00 | 0.00 | 61 | 1031.3 |
| 20260504020723 | 16 | 337 | 0.0 | 1.6 | 0.00 | 0.00 | 0.00 | 60 | 1031.0 |
| 20260504020220 | 16 | 0 | 0.0 | 0.0 | 0.00 | 0.00 | 0.00 | 59 | 1031.2 |
| 20260504015716 | 16 | 348 | 0.0 | 0.0 | 0.00 | 0.00 | 0.00 | 58 | 1031.1 |
| 20260504015213 | 16 | 348 | 0.0 | 1.6 | 0.00 | 0.00 | 0.00 | 57 | 1031.0 |
| 20260504014708 | 16 | 356 | 0.0 | 0.0 | 0.00 | 0.00 | 0.00 | 57 | 1031.1 |
| 20260504014205 | 16 | 13 | 0.0 | 0.0 | 0.00 | 0.00 | 0.00 | 59 | 1031.1 |
| 20260504013703 | 16 | 5 | 0.0 | 0.0 | 0.00 | 0.00 | 0.00 | 57 | 1031.2 |
| 20260504013200 | 16 | 9 | 0.0 | 0.0 | 0.00 | 0.00 | 0.00 | 56 | 1031.1 |
| 20260504012657 | 16 | 18 | 0.0 | 0.0 | 0.00 | 0.00 | 0.00 | 56 | 1031.2 |
| 20260504012155 | 16 | 11 | 0.0 | 0.0 | 0.00 | 0.00 | 0.00 | 55 | 1030.8 |
| 20260504011651 | 17 | 11 | 0.0 | 0.0 | 0.00 | 0.00 | 0.00 | 54 | 1031.0 |
| 20260504011148 | 17 | 26 | 0.0 | 0.0 | 0.00 | 0.00 | 0.00 | 53 | 1030.9 |
| 20260504010644 | 17 | 12 | 0.0 | 0.0 | 0.00 | 0.00 | 0.00 | 52 | 1030.8 |
| 20260504010140 | 18 | 21 | 0.0 | 0.0 | 0.00 | 0.00 | 0.00 | 53 | 1030.9 |
| 20260504005637 | 18 | 24 | 0.0 | 0.0 | 0.00 | 0.00 | 0.00 | 49 | 1031.1 |
| 20260504005133 | 18 | 25 | 0.0 | 0.0 | 0.00 | 0.00 | 0.00 | 48 | 1031.1 |
| 20260504004632 | 18 | 335 | 0.0 | 0.0 | 0.00 | 0.00 | 0.00 | 48 | 1031.1 |
| 20260504004129 | 19 | 6 | 0.0 | 0.0 | 0.00 | 0.00 | 0.00 | 47 | 1030.8 |
| 20260504003625 | 20 | 35 | 0.0 | 0.0 | 0.00 | 0.00 | 0.00 | 47 | 1030.8 |
| 20260504003121 | 20 | 355 | 0.0 | 0.0 | 0.00 | 0.00 | 0.00 | 45 | 1031.0 |
| 20260504002618 | 21 | 359 | 1.6 | 1.6 | 0.00 | 0.00 | 0.00 | 44 | 1030.9 |
| 20260504002116 | 21 | 30 | 1.6 | 1.6 | 0.00 | 0.00 | 0.00 | 44 | 1031.1 |
| 20260504001614 | 21 | 3 | 0.0 | 0.0 | 0.00 | 0.00 | 0.00 | 43 | 1031.2 |
| 20260504001109 | 22 | 28 | 0.0 | 1.6 | 0.00 | 0.00 | 0.00 | 43 | 1031.4 |
| 20260504000607 | 22 | 26 | 1.6 | 1.6 | 0.00 | 0.00 | 0.00 | 43 | 1031.3 |
| 20260504000104 | 22 | 312 | 0.0 | 1.6 | 0.00 | 0.00 | 0.00 | 41 | 1031.2 |
| 20260503235602 | 22 | 303 | 1.6 | 3.2 | 0.00 | 0.00 | 0.00 | 40 | 1031.2 |
| 20260503235059 | 22 | 196 | 1.6 | 4.8 | 0.00 | 0.00 | 0.00 | 41 | 1031.4 |
| 20260503234556 | 23 | 344 | 0.0 | 1.6 | 0.00 | 0.00 | 0.00 | 40 | 1031.5 |
| 20260503234054 | 23 | 228 | 0.0 | 1.6 | 0.00 | 0.00 | 0.00 | 40 | 1031.4 |
| 20260503233551 | 23 | 12 | 0.0 | 0.0 | 0.00 | 0.00 | 0.00 | 41 | 1031.5 |
| 20260503233047 | 22 | 41 | 1.6 | 1.6 | 0.00 | 0.00 | 0.00 | 39 | 1031.6 |
| 20260503232544 | 23 | 337 | 4.8 | 4.8 | 0.00 | 0.00 | 0.00 | 39 | 1031.3 |
| 20260503232041 | 23 | 26 | 1.6 | 3.2 | 0.00 | 0.00 | 0.00 | 37 | 1031.8 |
| 20260503231539 | 23 | 27 | 0.0 | 1.6 | 0.00 | 0.00 | 0.00 | 37 | 1031.6 |
| 20260503231035 | 23 | 0 | 1.6 | 3.2 | 0.00 | 0.00 | 0.00 | 37 | 1031.6 |
| 20260503230532 | 23 | 22 | 0.0 | 1.6 | 0.00 | 0.00 | 0.00 | 38 | 1031.8 |
| 20260503230030 | 23 | 305 | 3.2 | 3.2 | 0.00 | 0.00 | 0.00 | 37 | 1032.1 |
| 20260503225526 | 23 | 36 | 3.2 | 3.2 | 0.00 | 0.00 | 0.00 | 37 | 1032.0 |
| 20260503225021 | 23 | 358 | 1.6 | 1.6 | 0.00 | 0.00 | 0.00 | 38 | 1032.0 |
| 20260503224519 | 23 | 21 | 1.6 | 1.6 | 0.00 | 0.00 | 0.00 | 38 | 1032.2 |
| 20260503224017 | 23 | 2 | 1.6 | 3.2 | 0.00 | 0.00 | 0.00 | 37 | 1032.0 |
| 20260503223515 | 23 | 269 | 3.2 | 8.0 | 0.00 | 0.00 | 0.00 | 37 | 1032.3 |
| 20260503223010 | 23 | 84 | 3.2 | 4.8 | 0.00 | 0.00 | 0.00 | 36 | 1032.2 |
| 20260503222508 | 23 | 40 | 1.6 | 3.2 | 0.00 | 0.00 | 0.00 | 37 | 1032.2 |
| 20260503222006 | 23 | 34 | 0.0 | 1.6 | 0.00 | 0.00 | 0.00 | 38 | 1032.0 |
| 20260503221504 | 23 | 242 | 1.6 | 3.2 | 0.00 | 0.00 | 0.00 | 35 | 1032.3 |
| 20260503221001 | 23 | 357 | 1.6 | 3.2 | 0.00 | 0.00 | 0.00 | 36 | 1032.3 |
| 20260503220457 | 23 | 13 | 1.6 | 3.2 | 0.00 | 0.00 | 0.00 | 37 | 1032.2 |
| 20260503215954 | 23 | 269 | 1.6 | 3.2 | 0.00 | 0.00 | 0.00 | 37 | 1032.3 |
| 20260503215451 | 23 | 75 | 3.2 | 3.2 | 0.00 | 0.00 | 0.00 | 37 | 1032.4 |
| 20260503214949 | 24 | 334 | 3.2 | 3.2 | 0.00 | 0.00 | 0.00 | 36 | 1032.5 |
| 20260503214447 | 24 | 26 | 1.6 | 1.6 | 0.00 | 0.00 | 0.00 | 36 | 1032.6 |
| 20260503213943 | 24 | 313 | 1.6 | 1.6 | 0.00 | 0.00 | 0.00 | 37 | 1032.4 |
| 20260503213442 | 23 | 351 | 1.6 | 1.6 | 0.00 | 0.00 | 0.00 | 38 | 1032.7 |
| 20260503212937 | 23 | 325 | 3.2 | 4.8 | 0.00 | 0.00 | 0.00 | 37 | 1032.9 |
| 20260503212435 | 23 | 352 | 4.8 | 8.0 | 0.00 | 0.00 | 0.00 | 37 | 1032.7 |
| 20260503211932 | 23 | 338 | 4.8 | 4.8 | 0.00 | 0.00 | 0.00 | 37 | 1033.1 |
| 20260503211429 | 23 | 10 | 0.0 | 1.6 | 0.00 | 0.00 | 0.00 | 40 | 1033.3 |
| 20260503210925 | 23 | 321 | 1.6 | 3.2 | 0.00 | 0.00 | 0.00 | 40 | 1033.3 |
| 20260503210422 | 23 | 65 | 1.6 | 1.6 | 0.00 | 0.00 | 0.00 | 39 | 1033.3 |
| 20260503205916 | 22 | 26 | 1.6 | 3.2 | 0.00 | 0.00 | 0.00 | 39 | 1033.3 |
| 20260503205414 | 23 | 23 | 6.4 | 9.7 | 0.00 | 0.00 | 0.00 | 37 | 1033.4 |
| 20260503204910 | 23 | 329 | 8.0 | 9.7 | 0.00 | 0.00 | 0.00 | 39 | 1033.7 |
| 20260503204407 | 23 | 133 | 3.2 | 3.2 | 0.00 | 0.00 | 0.00 | 39 | 1033.6 |
| 20260503203904 | 23 | 14 | 0.0 | 1.6 | 0.00 | 0.00 | 0.00 | 38 | 1034.0 |
| 20260503203401 | 23 | 2 | 3.2 | 3.2 | 0.00 | 0.00 | 0.00 | 39 | 1034.0 |
| 20260503202858 | 23 | 285 | 0.0 | 1.6 | 0.00 | 0.00 | 0.00 | 38 | 1034.1 |
| 20260503202356 | 23 | 59 | 1.6 | 1.6 | 0.00 | 0.00 | 0.00 | 40 | 1034.2 |
| 20260503201855 | 23 | 269 | 0.0 | 1.6 | 0.00 | 0.00 | 0.00 | 40 | 1034.1 |
| 20260503201351 | 23 | 263 | 1.6 | 1.6 | 0.00 | 0.00 | 0.00 | 40 | 1034.3 |
| 20260503200849 | 23 | 67 | 4.8 | 8.0 | 0.00 | 0.00 | 0.00 | 39 | 1034.7 |
| 20260503200344 | 23 | 12 | 0.0 | 1.6 | 0.00 | 0.00 | 0.00 | 37 | 1034.9 |
| 20260503195842 | 23 | 317 | 3.2 | 3.2 | 0.00 | 0.00 | 0.00 | 38 | 1034.9 |
| 20260503195338 | 22 | 250 | 3.2 | 3.2 | 0.00 | 0.00 | 0.00 | 39 | 1035.1 |
| 20260503194836 | 23 | 90 | 3.2 | 3.2 | 0.00 | 0.00 | 0.00 | 40 | 1035.2 |
| 20260503194331 | 23 | 280 | 1.6 | 3.2 | 0.00 | 0.00 | 0.00 | 39 | 1035.6 |
| 20260503193828 | 23 | 353 | 1.6 | 1.6 | 0.00 | 0.00 | 0.00 | 40 | 1035.3 |
| 20260503193324 | 22 | 18 | 0.0 | 0.0 | 0.00 | 0.00 | 0.00 | 40 | 1035.6 |
| 20260503192820 | 22 | 229 | 9.7 | 16.1 | 0.00 | 0.00 | 0.00 | 38 | 1035.6 |
| 20260503192315 | 22 | 317 | 4.8 | 8.0 | 0.00 | 0.00 | 0.00 | 40 | 1035.8 |
| 20260503191812 | 22 | 334 | 0.0 | 1.6 | 0.00 | 0.00 | 0.00 | 38 | 1036.0 |
| 20260503191309 | 22 | 359 | 4.8 | 8.0 | 0.00 | 0.00 | 0.00 | 40 | 1036.0 |
| 20260503190806 | 22 | 270 | 3.2 | 3.2 | 0.00 | 0.00 | 0.00 | 41 | 1036.0 |
| 20260503190303 | 22 | 322 | 1.6 | 3.2 | 0.00 | 0.00 | 0.00 | 39 | 1036.1 |
| 20260503185800 | 22 | 315 | 1.6 | 3.2 | 0.00 | 0.00 | 0.00 | 40 | 1036.2 |
| 20260503185255 | 22 | 31 | 1.6 | 1.6 | 0.00 | 0.00 | 0.00 | 40 | 1035.9 |
| 20260503184755 | 22 | 7 | 1.6 | 1.6 | 0.00 | 0.00 | 0.00 | 39 | 1036.4 |
| 20260503184252 | 21 | 326 | 6.4 | 9.7 | 0.00 | 0.00 | 0.00 | 43 | 1036.3 |
| 20260503183748 | 21 | 196 | 0.0 | 1.6 | 0.00 | 0.00 | 0.00 | 43 | 1036.4 |
| 20260503183246 | 21 | 64 | 1.6 | 3.2 | 0.00 | 0.00 | 0.00 | 40 | 1036.6 |
| 20260503182743 | 21 | 213 | 1.6 | 1.6 | 0.00 | 0.00 | 0.00 | 43 | 1036.7 |
| 20260503182242 | 21 | 351 | 4.8 | 4.8 | 0.00 | 0.00 | 0.00 | 43 | 1036.8 |
| 20260503181738 | 21 | 317 | 1.6 | 1.6 | 0.00 | 0.00 | 0.00 | 43 | 1036.5 |
| 20260503181235 | 21 | 345 | 0.0 | 1.6 | 0.00 | 0.00 | 0.00 | 44 | 1037.0 |
| 20260503180732 | 21 | 339 | 0.0 | 0.0 | 0.00 | 0.00 | 0.00 | 47 | 1037.1 |